DW3741 Weather Reports


time (UTC)temp
C
wind
direction
speed
KPH
gust
KPH
rain 1hr
cm
rain 24hr
cm
rain mn
cm
humidity
%
barometer
mb
20260506091213 8 336 3.2 11.3 0.00 0.15 0.15 91 1007.3
20260506073135 8 34 3.2 6.4 0.05 0.13 0.15 91 1007.3
20260506071649 8 18 1.6 4.8 0.05 0.13 0.15 91 1007.2
20260506071153 8 21 3.2 4.8 0.05 0.13 0.13 91 1007.1
20260506070614 8 11 1.6 4.8 0.03 0.10 0.13 91 1007.2
20260506061529 8 27 1.6 6.4 0.05 0.10 0.10 91 1007.3
20260506060537 8 36 1.6 6.4 0.08 0.03 0.08 91 1007.3
20260506050956 8 32 1.6 8.0 0.05 0.03 0.05 89 1007.5
20260506043458 8 39 1.6 9.7 0.03 0.00 0.03 88 1007.5
20260506042958 8 29 3.2 9.7 0.03 0.00 0.03 88 1007.6
20260506034954 8 39 3.2 9.7 0.00 0.00 0.00 87 1007.8
20260506033455 9 17 3.2 16.1 0.00 0.00 0.00 86 1007.8
20260506032505 9 34 6.4 16.1 0.00 0.00 0.00 86 1007.9
20260506032005 9 46 3.2 16.1 0.00 0.00 0.00 86 1007.8
20260506030934 9 38 1.6 14.5 0.00 0.00 0.00 86 1007.9
20260506021925 9 24 3.2 11.3 0.00 0.03 0.00 85 1008.2
20260506014921 9 39 3.2 16.1 0.00 0.05 0.00 84 1008.4
20260506013933 10 39 3.2 11.3 0.00 0.08 0.00 84 1008.5
20260506013007 10 35 3.2 8.0 0.00 0.13 0.00 83 1008.6
20260506011933 10 31 4.8 14.5 0.00 0.15 0.00 83 1008.5
20260506010935 10 284 4.8 17.7 0.00 0.20 0.00 83 1008.7
20260506005359 10 53 4.8 16.1 0.00 0.23 0.00 83 1008.8
20260506002357 10 39 3.2 20.9 0.00 0.64 0.00 83 1008.9
20260506000431 10 32 4.8 14.5 0.00 0.79 0.79 83 1009.0
20260505235932 10 32 4.8 11.3 0.00 0.79 0.79 83 1009.0
20260505235418 10 32 4.8 11.3 0.00 0.81 0.79 83 1009.1
20260505233854 10 286 4.8 14.5 0.00 0.89 0.79 82 1009.1
20260505232330 10 42 6.4 14.5 0.00 1.04 0.79 83 1009.2
20260505230402 10 50 4.8 14.5 0.00 1.68 0.79 83 1009.2
20260505225903 10 42 3.2 20.9 0.00 1.75 0.79 82 1009.2
20260505225326 10 38 6.4 20.9 0.00 1.75 0.79 83 1009.3
20260505224828 10 27 4.8 16.1 0.00 1.75 0.79 83 1009.3
20260505222934 10 21 3.2 16.1 0.00 1.93 0.79 83 1009.3
20260505221858 10 35 6.4 11.3 0.00 1.93 0.79 83 1009.4
20260505220829 10 35 4.8 16.1 0.00 1.93 0.79 83 1009.2
20260505215936 10 36 4.8 16.1 0.00 1.93 0.79 83 1009.2
20260505212426 11 35 6.4 14.5 0.00 1.93 0.79 83 1009.1
20260505211532 11 63 3.2 11.3 0.00 1.93 0.79 83 1009.0
20260505211038 11 32 4.8 16.1 0.00 1.93 0.79 83 1009.0
20260505210456 11 24 6.4 16.1 0.00 1.93 0.79 83 1008.9
20260505204502 11 36 3.2 14.5 0.00 1.93 0.79 82 1008.9
20260505202012 11 38 6.4 14.5 0.00 1.93 0.79 82 1008.8
20260505201515 11 38 6.4 14.5 0.00 1.93 0.79 82 1008.8
20260505194519 11 32 3.2 8.0 0.00 1.93 0.79 81 1008.9
20260505191948 11 32 4.8 11.3 0.00 1.93 0.79 81 1008.8
20260505191400 11 29 4.8 14.5 0.00 1.93 0.79 81 1008.8
20260505185455 11 43 4.8 14.5 0.00 1.93 0.79 81 1009.1
20260505182951 11 12 4.8 14.5 0.00 1.93 0.79 82 1009.1
20260505182454 11 28 3.2 11.3 0.00 1.93 0.79 82 1009.2
20260505181958 11 29 4.8 11.3 0.00 1.93 0.79 82 1009.2
20260505181501 11 31 3.2 11.3 0.00 1.93 0.79 82 1009.3
20260505180429 11 34 3.2 11.3 0.00 1.93 0.79 83 1009.2
20260505175841 11 36 3.2 11.3 0.00 1.93 0.79 83 1009.2
20260505175259 11 28 3.2 6.4 0.00 1.93 0.79 83 1009.3
20260505174756 11 39 1.6 11.3 0.00 1.93 0.79 83 1009.4
20260505173801 11 21 3.2 8.0 0.00 1.93 0.79 83 1009.3
20260505171209 11 34 3.2 9.7 0.00 1.93 0.79 83 1009.5
20260505170712 11 39 4.8 9.7 0.00 1.93 0.79 83 1009.6
20260505162644 11 22 1.6 11.3 0.00 1.93 0.79 83 1009.8
20260505162104 11 18 6.4 16.1 0.00 1.93 0.79 83 1009.7
20260505161602 11 31 4.8 16.1 0.00 1.93 0.79 83 1009.8
20260505160610 11 31 1.6 9.7 0.00 1.93 0.79 83 1009.8
20260505153222 11 27 6.4 16.1 0.00 1.93 0.79 83 1010.1
20260505150306 11 19 8.0 11.3 0.00 1.93 0.79 84 1010.2
20260505130233 10 24 6.4 16.1 0.00 1.93 0.79 87 1010.8
20260505124747 10 24 3.2 11.3 0.00 1.93 0.79 87 1010.8
20260505123142 10 29 6.4 16.1 0.00 1.93 0.79 87 1010.8
20260505122645 10 18 8.0 16.1 0.00 1.93 0.79 88 1010.8
20260505115117 10 36 4.8 17.7 0.00 1.93 0.79 89 1011.1
20260505112123 9 14 8.0 17.7 0.00 1.93 0.79 89 1011.0
20260505110250 9 31 8.0 16.1 0.00 1.93 0.79 88 1011.0
20260505095734 9 34 6.4 16.1 0.00 1.93 0.79 88 1011.0